www.pogodaiklimat.ru

Погода и климат >> Архив погоды >> Мексика >> Toluca


ПОГОДА в Toluca

  • Прогноз погоды в Toluca
  • Монитор погоды в Toluca
  • Климат города

АРХИВ ПОГОДЫ в Toluca

Время (UTC), дата Ветер
(напр.,м/с)
 
Видим.   Явления Облачность Т
(С)
Тd
(С)
f
(%)
Тe
(С)
Тes
(С)
Комфортность P
(гПа)
Po
(гПа)
Тmin
(С)
Tmax
(С)
R
(мм)
R24
(мм)
S
(см)
00 18.05 С 2 25 км 6/1 600 м
[Cb calv Ac trans Cs]
+22.9 +1.4 24 +22 +23 комфорт 1000.9 736.9 +7.3 +26.2
06 18.05 Ю 1 10 км 1/0
[Ac As]
+13.6 +6.3 61 +14 +14 1004.8 738.8 +7.3 +26.2
09 18.05 Ю 1 10 км ясно +10.8 +6.0 72 +11 +11 1006.6 737.8
15 18.05 С 1 25 км ясно +18.2 +6.8 47 +19 +30 1012.7 738.5
18 18.05 З 2 25 км 1/1 900 м
[Cu hum]
+24.9 +3.5 25 +24 +44 комфорт 1009.3 737.6 +7.0 +25.4
21 18.05 С 1 25 км 8/8 800 м
[Cb calv]
+25.5 +1.4 21 +24 +28 комфорт 1003.6 736.0
00 19.05 З 2 20 км мгла {туман} 6/5 600 м
[Cb calv Ac trans]
+21.3 +8.3 43 +22 +23 комфорт 999.3 735.6 +7.0 +26.9
06 19.05 штиль 0 10 км 5/5 600 м
[Sc diur, vesp Ac As]
+15.2 +9.6 69 +15 +15 1003.6 738.2 +7.0 +26.9
09 19.05 штиль 0 10 км ясно +11.5 +7.0 74 +11 +11 1005.2 737.1
12 19.05 З 1 25 км 1/0
[Ac trans]
+10.0 +6.3 78 +10 +10 1008.9 737.2 +8.9 +26.9
15 19.05 С 1 20 км ясно +18.8 +7.4 47 +20 +31 1011.2 738.3
18 19.05 З 2 20 км мгла {туман} 1/1 900 м
[Cu med, cong]
+24.8 +5.8 29 +24 +44 комфорт 1008.5 737.8 +8.5 +25.3
00 20.05 В 2 15 км гроза без осадков {ливн. осадки} 10/10 600 м
[Cb cap]
+14.7 +9.8 72 +14 +14 1002.0 736.7 12
12 20.05 ЮВ 1 20 км ясно +8.8 +5.6 80 +8 +8 1013.7 738.5 +6.8 +27.9
15 20.05 СЗ 1 20 км мгла {туман} ясно +18.0 +9.4 57 +19 +29 1014.8 739.3
18 20.05 ЮЗ 2 25 км мгла {туман} 1/1 800 м
[Cu med, cong]
+24.7 +6.6 31 +25 +44 комфорт 1011.1 738.7 +6.5 +25.8
21 20.05 З 2 25 км мгла {туман} 8/6 800 м
[Cb calv Ac cuf]
+25.5 +1.3 21 +24 +28 комфорт 1004.4 736.8
00 21.05 ЮЗ 3 25 км слабый дождь {гроза} 9/8 600 м
[Cb cap Ac cuf]
+14.7 +6.6 58 +14 +14 1002.7 737.0 2
03 21.05 СВ 1 10 км {дождь} 10/10 800 м
[Cb calv]
+14.9 +7.9 63 +16 +16 1004.4 738.3 0.6
06 21.05 З 1 10 км слабый дождь 10/10 600 м
[Cb calv]
+13.0 +7.3 68 +13 +13 1008.1 739.3 1
09 21.05 Ю 1 10 км {дождь} 3/3 800 м
[Sc diur, vesp]
+10.9 +6.9 76 +11 +11 1009.3 737.4 0.0
12 21.05 Ю 2 15 км {морось} ясно +8.2 +6.1 87 +6 +6 1011.8 737.7 +7.5 +27.1 0.0
15 21.05 СВ 1 20 км {туман} 1/1 800 м
[Cu med, cong]
+17.5 +7.2 51 +19 +28 1013.1 738.4
18 21.05 С 3 15 км {туман} 4/4 800 м
[Cu med, cong]
+22.3 +6.1 35 +23 +34 комфорт 1011.1 738.5 +7.4 +22.6
21 21.05 Ю 3 20 км {гроза, дождь} 9/9 800 м
[Cb calv]
+19.5 +8.5 49 +21 +22 комфорт 1008.6 738.0 0.6
00 22.05 ЮЗ 3 10 км {гроза, дождь} 10/10 600 м
[Cb calv]
+15.5 +8.4 63 +15 +15 1006.0 737.7 0.6
03 22.05 Ю 1 10 км слабый дождь 10/10 800 м
[Cb calv]
+13.5 +9.9 79 +14 +14 1007.1 738.6 0.0
06 22.05 С 1 10 км {дождь} 9/9 600 м
[Cb calv]
+12.7 +7.9 73 +13 +13 1009.2 738.4 0.5
09 22.05 Ю 1 10 км 4/3 800 м
[Sc diur, vesp Ac und]
+9.4 +7.2 86 +9 +9 1010.1 737.6
12 22.05 штиль 0 25 км ясно +6.7 +4.7 87 +6 +6 1013.1 737.8 +5.6 +23.1
15 22.05 Ю 1 20 км мгла {туман} ясно +17.0 +6.5 50 +18 +28 1015.2 739.0
18 22.05 С 2 18 км {туман} 4/4 800 м
[Cu med, cong]
+23.1 +6.1 33 +24 +37 комфорт 1012.4 738.8 +5.4 +23.6
21 22.05 СВ 1 25 км мгла {туман} 6/6 800 м
[Cb calv]
+24.4 +4.1 27 +24 +31 комфорт 1005.6 736.5
00 23.05 Ю 2 10 км гроза без осадков {дождь} 10/10 600 м
[Cb calv]
+13.6 +7.6 67 +13 +13 1004.7 737.4 10
03 23.05 С 1 10 км {дождь} 9/9 800 м
[Cb calv]
+12.8 +8.6 76 +13 +13 1005.5 738.2 0.4
06 23.05 В 1 10 км {дождь} 9/9 600 м
[Cb calv]
+11.3 +9.4 88 +11 +11 1009.2 738.9 0.4
09 23.05 Ю 1 10 км 3/3 800 м
[Sc diur, vesp]
+9.2 +7.4 88 +9 +9 1012.0 738.1
12 23.05 З 1 20 км мгла {туман} 3/0
[Ci]
+8.0 +6.7 91 +7 +7 1014.9 738.7 +7.0
15 23.05 С 1 18 км мгла {туман} ясно +16.5 +8.0 57 +17 +28 1017.0 740.2
18 23.05 З 1 18 км мгла {туман} 1/1 800 м
[Cu hum]
+22.9 +7.4 37 +24 +47 комфорт 1013.9 739.9 +6.8 +23.3
21 23.05 С 1 25 км мгла {туман} 4/4 800 м
[Cb calv]
+25.7 +2.9 23 +25 +36 комфорт 1008.1 738.6
00 24.05 З 2 10 км 10/10 600 м
[Cb calv]
+19.7 +6.8 43 +21 +21 комфорт 1004.1 738.2 +6.8 +26.8
03 24.05 штиль 0 10 км 9/9 800 м
[Cb calv]
+15.5 +9.9 69 +15 +15 1004.9 739.4
06 24.05 ЮВ 1 10 км 5/5 600 м
[Cb calv]
+12.1 +7.6 74 +12 +12 1007.6 739.9 +6.8 +26.8
09 24.05 Ю 1 10 км ясно +8.9 +3.5 69 +8 +8 1010.6 739.2
12 24.05 ЮЗ 1 25 км мгла {туман} ясно +7.8 +4.7 81 +7 +7 1015.1 739.8 +6.8 +26.8
15 24.05 С 1 20 км мгла {туман} ясно +17.6 +8.3 54 +19 +29 1017.3 740.9
18 24.05 С 1 20 км мгла {туман} ясно +24.5 +3.6 26 +24 +49 комфорт 1014.1 740.6 +6.5 +24.9
21 24.05 С 3 30 км 3/3 800 м
[Cu med, cong]
+26.2 -6.1 11 +23 +32 комфорт 1008.1 739.5

 

Местоположение метеостанции Toluca (Мексика): широта 19.28 долгота -99.68 высота над уровнем моря 2720 м.

В архиве по умолчанию представлена погода в Toluca за последнюю неделю. Архивные данные за месяц целиком и за предыдущие месяцы, начиная с января 2011 года, Вы можете получить, выбрав интересующий диапазон дат из раскрывающегося списка и нажав кнопку "Ввод!".


*Определитесь, кто Вы:
робот инопланетянин человек

Внимание! Время в таблицах - всемирное. Для получения местного времени необходимо прибавить поправку, которая в Toluca равна -6 ч.

Смотрите также архив погоды в соседних городах и на ближайших метеорологических станциях:

Погода в Institute of Geography (Мексика) (53 км)
Погода в Mexico City (Мексика) (54 км)
Погода в Cuernavaca (Мексика) (65 км)
Погода в Zacatepec (Мексика) (84 км)
Погода в Pachuca (Мексика) (136 км)
Погода в Tlaxcala (Мексика) (150 км)
Погода в Tlaxcala Airport (Мексика) (151 км)
Погода в Morelia (Мексика) (156 км)
Погода в Puebla (Мексика) (162 км)
Погода в Queretaro (Мексика) (163 км)

Пояснения к столбцам:

Ветер - указаны скорость ветра в м/с - средняя за 10 мин, порывы в срок и между сроками (в фигурных скобках) и направление, откуда дует ветер: С - северный, СВ - северо-восточный, В - восточный, ЮВ - юго-восточный, Ю - южный, ЮЗ - юго-западный, З - западный, СЗ - северо-западный.
Видимость - горизонтальная дальность видимости в метрах или километрах. При видимости от 1 до 10 км при отсутствии осадков обычно наблюдается дымка, при ухудшении видимости до 1 км и менее - туман. В сухую погоду видимость может ухудшаться дымом, пылью или мглою.
Явления - указаны атмосферные явления, наблюдавшиеся в срок или в последний час перед сроком; фигурными скобками обозначены явления, наблюдавшиеся между сроками (за 1-3 часа до срока); квадратными скобками обозначены град или гололедные отложения с указанием их диаметра в мм.
Облачность - указаны через наклонную черту общая и нижняя облачность в баллах и высота нижней границы облаков в метрах; квадратными скобками обозначены формы облаков: Ci - перистые, Cs - перисто-слоистые, Cc - перисто-кучевые, Ac - высококучевые, As - высокослоистые, Sc - слоисто-кучевые, Ns - слоисто-дождевые, Cu - кучевые, Cb - кучево-дождевые. Подробнее классификацию облаков см. в Атласе облаков (PDF).
T - Температура воздуха - температура, измеренная на высоте 2 м над землей.
Td - Температура точки росы - температура, при понижении до которой содержащийся в воздухе водяной пар достигнет насыщения.
f - Относительная влажность воздуха - влажноcть воздуха, измеренная на высоте 2 м над землей.
Te - Эффективная температура - температура, которую ощущает одетый по сезону человек в тени. Характеристика душности погоды. При расчете учитывается влияние влажности воздуха и скорости ветра на теплоощущения человека.
Tes - Эффективная температура на солнце - температура, которую ощущает человек, с поправкой на солнечный нагрев. Характеристика знойности погоды. Зависит от высоты солнца над горизонтом, облачности и скорости ветра. Ночью, в пасмурную погоду, а также при ветре 12 м/с и более поправка равна нулю.
P - Атмосферное давление - приведенное к уровню моря атмосферное давление.
Po - Атмосферное давление - измеренное на уровне метеостанции атмосферное давление.
Tmin - Минимальная температура - минимум температуры воздуха на высоте 2 м над землей.
Tmax - Максимальная температура - максимум температуры воздуха на высоте 2 м над землей.
R - Количество осадков - Количество выпавших осадков за период времени, мм. При наведении курсора мыши на число - период времени, за который выпало указанное количество осадков.
R24 - Количество осадков - Количество выпавших осадков за 24 часа, мм.
S - Снежный покров - Высота снежного покрова, см. При наведении курсора мыши на число - состояние снежного покрова и степень покрытия местности в баллах.